Regional Weather Roundup
Issued by NWS

Home | Current Version | Previous Version | Graphics & Text | Print | Product List | Glossary On
Versions: 1 2 3 4 5 6 7 8 9 10 11 12 13 14 15 16 17 18 19 20 21 22 23 24 25 26 27 28 29 30 31 32 33 34 35 36 37 38 39 40 41 42 43 44 45 46 47 48 49 50
000
ASUS44 KMEG 171200
RWRTN
TENNESSEE HOURLY STATE WEATHER ROUNDUP
NATIONAL WEATHER SERVICE MEMPHIS TN
700 AM CDT THU APR 17 2014

TNZ002-004-019-021-049-052-054-088>092-171300-
WEST TENNESSEE

CITY           SKY/WX    TMP DP  RH WIND       PRES   REMARKS
MEMPHIS INTL   PTCLDY    45  35  68 E3        30.24R
NWS MEMPHIS      N/A     40 N/A N/A MISG        N/A
JACKSON        CLEAR     45  34  65 VRB5      30.27R
DYERSBURG      CLEAR     45  28  53 SE6       30.27R
UNION CITY     CLEAR     37  34  87 CALM      30.26R
LEXINGTON      CLEAR     36  34  93 CALM      30.27R
$$

TNZ008-025-027-028-033-062-065-066-171300-
NORTH MIDDLE TENNESSEE

CITY           SKY/WX    TMP DP  RH WIND       PRES   REMARKS
NASHVILLE      MOCLDY    47  31  53 S6        30.34R
CLARKSVILLE    CLEAR     45  34  65 S6        30.31R
CROSSVILLE     MOSUNNY   43  26  51 S6        30.35R
$$

TNZ061-075-076-078-094-096-097-171300-
SOUTH MIDDLE TENNESSEE

CITY           SKY/WX    TMP DP  RH WIND       PRES   REMARKS
TULLAHOMA      CLEAR     45  27  49 S7        30.34R
WINCHESTER     CLEAR     46  28  49 SE14      30.34R
COLUMBIA       CLEAR     48  36  61 SE5       30.30R
$$

TNZ017-018-042-046-047-171300-
NORTHEAST TENNESSEE

CITY           SKY/WX    TMP DP  RH WIND       PRES   REMARKS
TRI CITIES     MOSUNNY   37  24  59 CALM      30.43R
ELIZABETHTON   SUNNY     39  23  52 CALM      30.43R
$$

TNZ012-013-036-069-073-074-171300-
CENTRAL EAST TENNESSEE

CITY           SKY/WX    TMP DP  RH WIND       PRES   REMARKS
KNOXVILLE      PTSUNNY   37  32  82 CALM      30.38R
OAK RIDGE      MOSUNNY   36  33  89 E3        30.40R
$$

TNZ083-085-099-171300-
SOUTHEAST TENNESSEE

CITY           SKY/WX    TMP DP  RH WIND       PRES   REMARKS
CHATTANOOGA    MOSUNNY   41  34  76 S3        30.39R
$$

SKY/WX REPORTED AS FAIR MEANS FEW OR NO CLOUDS BELOW
12 THOUSAND FEET.




USA.gov is the U.S. government's official web portal to all federal, state and local government web resources and services.